Theta_e
308 308 308 308 308 308 308 308 309 309 309 310 310 310 310 310 310 310 310 310 310 311 311 310 310 310 310 309 310 310 309 310 312 313 313 311 310 308 306 306 307 309 309 310 313 314 314 314 314 312 311 312 312 314 316 316 315 314 314 314 311 312 313 313 315 315 315 316 316 315 315 315 322 333 339 339 341 343 343 344 342 343 344 345 347 345 344 342
308 308 309 308 308 308 308 308 309 309 309 310 310 310 310 310 310 310 310 310 310 311 310 310 310 310 310 309 310 309 309 311 312 314 314 311 309 308 306 306 307 310 310 311 312 313 313 312 313 311 310 312 313 314 315 316 315 313 314 313 312 315 315 315 315 314 315 316 316 315 315 315 315 324 333 335 338 341 342 344 343 344 344 344 345 344 343 342
308 308 308 308 308 308 308 308 308 308 309 310 310 310 310 310 310 310 310 310 310 311 310 310 310 310 310 310 310 309 310 312 314 317 317 314 312 309 306 305 308 310 310 311 311 312 313 312 312 311 310 312 312 314 314 315 315 313 315 313 314 316 314 315 315 315 315 315 315 315 314 315 314 317 323 327 333 335 336 340 343 345 345 343 343 343 343 342
308 308 308 308 308 308 308 308 308 308 308 309 310 309 309 310 310 310 310 310 310 310 310 310 310 309 309 309 308 308 311 315 317 319 318 316 315 310 306 306 308 310 311 311 311 311 312 312 312 311 310 312 312 314 314 315 314 314 315 314 315 315 314 314 314 315 315 314 315 314 315 315 314 315 318 323 328 328 327 332 336 342 345 344 342 343 344 344
307 308 307 308 308 308 308 308 308 308 308 309 309 309 309 310 310 310 310 310 310 310 310 310 309 308 308 307 307 309 314 315 317 319 315 314 314 310 306 306 307 310 311 311 311 310 312 312 311 311 311 312 313 313 313 314 314 314 314 314 315 314 313 314 315 315 314 314 314 314 314 314 314 315 317 322 324 325 326 330 334 337 343 344 343 343 344 343
307 307 307 308 308 308 307 307 307 307 307 308 308 308 309 310 310 310 309 309 310 310 310 310 309 308 307 306 308 312 315 313 316 315 312 313 312 309 307 307 308 311 311 311 311 310 311 311 310 311 311 311 313 312 313 315 314 314 314 314 315 314 313 314 314 314 313 313 314 314 314 314 315 314 315 320 324 328 330 331 333 337 344 344 344 344 344 342
307 307 307 307 307 307 307 307 307 307 308 308 308 309 309 310 310 310 310 309 309 309 310 310 309 308 305 307 311 314 314 311 314 313 312 313 310 307 309 308 309 311 312 311 311 310 311 311 311 311 310 312 313 312 313 315 313 313 314 314 314 314 313 314 314 314 313 313 313 314 313 314 313 314 315 316 324 331 331 330 331 338 345 344 344 343 343 343
306 306 306 307 307 307 307 307 307 308 308 308 308 308 309 309 309 310 310 309 309 308 309 309 309 307 305 309 315 314 311 311 315 315 315 313 308 308 311 311 310 311 311 311 311 311 311 310 310 311 311 312 312 313 314 314 313 313 313 314 313 314 314 314 314 313 313 313 313 312 313 314 313 315 315 315 327 333 332 332 333 340 343 342 343 343 343 343
306 306 306 307 307 307 307 307 308 307 308 308 307 308 308 308 309 310 309 309 308 308 309 309 309 307 306 312 314 309 310 313 315 318 319 313 307 309 313 313 312 311 311 312 311 311 311 311 311 311 312 312 312 313 313 312 313 312 313 314 313 314 313 313 313 313 313 313 313 313 313 314 314 314 313 320 332 335 335 336 337 341 341 341 342 344 343 342
304 306 306 306 307 307 307 307 307 307 307 308 307 307 308 308 309 308 308 309 308 308 309 309 308 306 310 314 313 310 310 313 315 318 322 317 309 310 314 313 312 311 312 312 311 311 310 311 312 312 312 312 312 312 313 312 312 313 313 314 313 313 313 313 313 313 313 314 313 313 314 313 314 313 315 327 335 335 337 339 340 342 341 341 342 343 343 342
303 304 304 305 306 306 306 307 307 308 307 308 307 307 307 307 308 307 308 309 308 308 309 309 307 308 313 313 311 311 309 312 314 317 321 318 311 312 314 313 312 313 313 312 312 311 311 313 314 312 312 312 311 312 312 312 312 312 312 312 312 312 313 313 313 313 313 314 313 313 313 314 314 312 319 334 336 336 338 339 340 341 340 341 342 343 343 342
302 303 303 303 304 305 306 306 307 307 307 307 307 306 306 306 306 307 308 308 308 308 308 308 307 309 313 313 313 312 309 311 313 315 319 318 313 312 313 314 313 313 313 313 312 312 310 313 314 313 312 312 312 312 312 312 311 312 312 312 312 312 313 312 313 313 313 314 314 314 312 313 315 313 322 336 336 337 339 340 340 340 340 341 343 343 342 342
302 302 302 301 302 303 305 306 306 306 306 306 306 306 306 306 306 306 307 307 308 308 308 309 308 310 313 315 314 312 309 310 311 314 317 317 313 312 313 314 314 313 314 313 313 312 310 312 314 313 313 312 313 311 311 312 311 312 312 312 312 312 312 313 313 313 314 313 313 313 309 311 315 315 326 337 336 338 339 339 340 340 340 342 342 341 341 342
301 301 300 300 300 301 302 304 305 306 306 305 306 306 305 305 305 305 307 307 308 308 309 309 310 312 315 316 313 310 310 311 312 314 315 316 313 311 313 313 313 313 312 313 312 311 310 313 314 313 312 313 313 311 311 312 311 312 312 311 312 310 310 313 313 312 314 311 312 313 308 311 315 318 330 336 335 337 339 340 340 339 340 341 342 341 340 341
301 300 299 299 299 299 300 301 303 305 305 305 306 306 305 305 305 305 307 307 308 309 309 309 310 314 317 317 315 312 312 313 315 316 315 314 313 312 312 313 312 312 312 311 310 310 310 313 313 313 313 312 312 311 311 312 312 313 310 310 310 309 310 314 313 312 314 312 313 312 308 311 316 322 332 336 335 336 337 340 340 339 341 342 342 341 340 340
301 299 298 299 299 299 299 300 301 304 304 304 305 306 306 307 305 306 307 308 309 310 310 312 313 314 317 316 313 312 314 315 316 316 315 314 313 311 312 312 312 312 312 311 310 310 310 311 312 312 313 312 312 312 312 311 311 312 310 308 309 309 310 312 314 314 314 314 313 313 311 313 315 323 333 336 335 336 337 340 340 339 340 341 341 341 340 340
301 299 298 299 299 299 299 300 301 303 303 303 304 307 308 308 307 306 308 309 310 310 311 314 314 314 317 314 312 312 314 315 314 316 316 314 313 311 311 312 312 311 312 310 311 311 311 312 312 312 312 312 313 312 311 309 309 311 310 310 311 310 309 310 313 314 315 315 315 314 313 313 315 321 332 335 335 335 336 339 340 339 339 340 341 340 340 340
301 300 299 299 300 300 300 301 302 303 303 302 304 308 308 309 308 309 310 311 311 311 313 313 313 315 316 313 313 313 313 314 314 315 315 313 311 310 310 311 311 310 310 310 311 310 312 313 312 313 312 312 313 312 309 309 309 310 310 309 310 311 310 310 313 315 315 315 315 315 315 315 316 322 330 334 335 335 337 339 340 339 337 339 340 340 340 340
302 302 301 299 300 300 300 302 303 303 303 302 305 308 309 310 310 312 312 312 314 317 318 317 315 316 314 313 312 312 314 314 313 315 315 312 310 310 310 310 310 310 310 311 312 312 313 313 313 312 312 312 313 311 311 311 312 312 311 310 310 310 310 312 315 315 316 315 316 316 315 315 316 324 331 334 335 337 336 339 340 338 337 337 338 339 340 339
304 303 302 301 300 301 301 301 303 303 303 304 307 310 314 316 317 317 315 314 317 317 316 316 315 315 314 313 313 314 314 313 313 315 315 311 310 311 310 310 310 311 312 313 313 313 313 313 312 312 312 313 313 314 314 314 314 314 313 312 311 310 311 313 316 315 316 316 316 317 317 316 316 325 335 336 336 337 336 338 340 339 337 337 338 339 339 339
303 303 303 301 300 301 302 301 302 302 303 305 307 313 316 316 316 316 316 316 317 317 316 315 316 315 316 315 314 315 314 314 314 315 314 311 311 311 311 311 311 312 313 313 314 314 313 313 313 313 315 315 315 316 316 315 315 314 313 312 311 311 312 315 316 315 317 317 317 317 317 315 320 328 334 336 337 336 336 338 338 338 337 336 338 338 339 338
302 303 302 301 300 301 301 301 301 300 303 305 308 312 313 312 313 313 314 315 316 317 316 316 316 316 316 316 315 315 315 315 315 314 314 312 311 311 311 311 312 313 313 314 314 313 312 313 313 315 316 315 316 315 315 315 316 314 313 312 311 311 313 315 317 318 318 318 318 316 314 316 324 332 335 335 336 336 335 337 337 337 337 337 338 338 338 339
302 301 301 301 300 300 301 301 300 299 304 308 310 312 312 312 311 311 313 315 316 316 316 315 316 315 315 316 315 315 314 315 315 314 314 312 311 312 311 311 312 313 313 313 314 313 312 313 314 315 315 315 316 316 315 315 314 314 313 311 311 313 312 312 317 320 318 319 319 316 315 319 326 333 336 337 337 336 337 335 335 336 336 337 338 338 338 339
300 299 300 300 299 299 300 300 300 304 307 309 309 308 310 311 309 311 315 317 316 316 315 315 316 315 316 316 316 315 314 315 315 315 314 312 311 311 312 312 312 313 313 312 313 313 312 314 315 315 314 314 315 316 316 313 312 313 315 313 312 313 313 313 318 320 319 318 319 316 314 316 322 328 332 336 336 337 336 335 336 336 336 337 337 338 338 338
300 299 300 300 300 299 298 300 305 309 308 308 308 307 308 309 308 312 316 316 316 315 316 316 316 315 316 316 315 315 315 314 316 315 314 313 311 311 311 312 312 312 311 312 312 312 313 315 315 314 314 313 314 315 314 313 311 312 317 317 315 316 316 317 318 318 315 314 318 318 311 312 318 322 327 335 335 335 335 335 336 336 336 337 337 338 338 338
300 300 301 301 301 300 299 307 311 308 305 306 309 309 309 307 308 314 317 316 315 315 316 317 316 317 315 315 315 315 315 314 316 316 314 313 312 311 311 311 312 311 311 312 312 311 312 315 314 313 315 314 314 314 314 315 312 312 316 318 318 317 317 318 318 315 312 313 318 320 313 311 315 318 326 334 334 334 336 336 337 336 337 336 336 337 337 337
300 300 301 302 302 301 304 309 307 304 305 306 308 308 306 306 310 315 317 315 313 314 316 316 315 316 315 315 315 314 314 314 315 315 314 313 312 311 311 311 310 310 311 312 311 311 313 314 313 314 315 314 313 313 315 316 313 314 318 318 316 316 317 319 316 314 313 315 318 319 316 312 312 317 326 330 331 334 336 336 336 336 337 337 338 337 337 337
300 301 301 303 302 302 304 307 305 305 306 305 306 306 305 308 313 318 317 313 311 314 316 314 313 315 314 315 315 314 314 314 315 315 314 314 313 311 311 311 311 310 312 311 310 313 314 314 315 314 314 314 314 314 315 316 315 316 319 317 316 317 317 318 316 314 314 315 313 314 315 312 310 317 322 325 328 332 334 334 335 335 336 338 339 338 338 338
300 301 302 302 301 301 303 304 306 306 305 305 304 303 305 312 317 317 314 311 312 314 314 312 313 313 314 314 315 315 314 314 314 314 313 313 312 312 311 312 311 311 311 311 312 315 315 314 314 314 314 314 315 316 316 316 317 318 318 317 316 317 317 318 316 313 314 314 311 313 315 312 311 315 317 321 324 327 330 331 331 332 333 334 337 338 338 337
301 302 302 301 302 303 304 305 305 303 304 304 302 304 309 316 318 315 312 312 314 315 312 312 313 313 315 314 315 316 314 314 313 312 313 312 312 312 311 312 311 311 311 311 312 313 314 314 314 314 314 315 315 315 315 316 317 317 317 316 316 316 317 317 316 313 313 313 312 314 317 314 311 312 315 319 322 324 327 326 326 327 327 328 330 334 336 335
301 301 301 301 304 305 306 308 306 303 304 303 301 308 315 317 315 315 314 312 311 314 313 313 313 312 314 314 314 315 315 314 313 312 313 313 312 312 311 312 312 311 312 311 312 312 312 313 313 314 314 313 314 314 314 314 315 316 317 315 313 313 314 313 313 313 313 313 314 315 318 315 311 312 317 322 324 325 326 327 328 328 326 326 324 325 330 334
301 300 299 301 303 304 304 305 305 303 304 302 303 311 315 314 314 314 314 310 310 314 313 312 313 312 313 314 314 314 315 314 313 313 314 313 313 313 312 313 312 312 311 311 311 312 313 312 312 314 314 313 314 314 314 314 315 316 315 313 311 311 313 312 312 313 312 313 316 316 317 314 311 315 322 325 326 327 329 330 329 328 329 328 325 324 329 332
301 299 300 302 304 304 305 304 303 302 302 302 305 312 312 311 313 313 311 309 311 314 312 311 312 311 312 313 313 314 314 315 314 314 315 314 314 314 313 313 313 313 312 312 312 311 312 313 313 313 313 313 314 313 313 314 315 315 313 312 311 311 314 314 312 312 312 314 317 318 317 314 312 318 325 326 327 329 329 329 329 329 330 329 327 327 330 330
301 300 303 305 305 306 306 306 305 303 303 305 308 312 313 311 312 313 311 309 310 313 311 311 311 311 312 313 314 314 313 314 314 314 315 315 315 315 314 314 313 313 314 313 312 311 312 312 313 313 313 314 314 313 314 315 315 316 314 314 311 310 313 313 311 310 310 313 316 318 316 313 312 318 323 326 329 330 329 329 330 330 329 329 328 328 328 329
301 303 305 306 307 307 307 307 307 303 305 309 309 312 313 311 311 310 310 309 308 311 310 310 310 310 312 313 314 314 312 314 314 313 315 315 315 315 315 314 314 314 315 314 313 313 311 312 314 314 314 314 314 314 315 315 314 315 315 313 312 311 312 312 315 316 313 313 315 315 315 314 316 320 323 326 329 330 330 330 330 330 330 329 329 329 328 329
304 306 307 308 310 309 307 308 307 304 307 310 308 311 312 310 309 308 309 310 310 309 309 309 309 310 312 313 314 314 312 314 315 314 314 314 315 315 315 315 314 313 315 314 314 314 311 311 314 313 313 314 313 314 315 314 314 315 314 312 313 315 314 313 315 318 316 312 314 314 313 314 316 318 322 326 330 331 330 330 331 331 331 330 330 329 327 328
307 308 309 311 310 308 308 308 306 305 308 309 309 310 311 309 309 308 310 311 309 310 308 308 309 310 311 312 314 314 313 314 315 313 314 315 315 315 314 315 314 314 315 314 314 315 313 312 313 313 312 312 311 313 313 312 314 314 312 312 314 315 315 313 312 314 314 312 314 315 314 314 313 315 322 326 329 331 330 331 331 331 331 330 329 329 328 328
307 310 312 310 307 307 308 308 307 306 307 308 309 310 311 310 308 308 310 311 310 311 310 308 309 310 311 312 313 314 314 314 314 313 313 314 315 314 314 314 313 313 314 314 314 316 315 312 313 313 313 311 310 312 313 312 312 313 313 314 314 312 312 312 312 314 314 313 314 314 314 313 311 315 320 323 327 331 331 330 330 330 330 329 328 328 327 327
309 311 311 308 306 307 307 307 308 306 305 307 308 309 311 310 309 309 311 310 310 310 309 309 309 309 310 311 312 314 314 313 315 314 313 314 315 315 313 314 313 312 312 313 314 315 316 314 313 313 313 312 311 312 312 312 312 312 313 314 314 313 312 312 312 313 312 313 313 314 314 312 311 317 320 322 328 332 331 330 329 329 329 328 328 327 326 327
311 310 310 308 307 307 307 309 309 305 304 306 307 309 309 309 309 310 311 310 309 309 310 310 309 309 311 310 311 313 314 314 316 316 315 315 315 315 313 314 314 312 311 312 313 315 315 315 314 312 311 311 312 312 312 312 313 312 312 313 312 313 313 314 314 312 311 312 312 314 313 312 315 321 322 323 328 330 330 330 329 329 328 328 328 328 327 326
311 310 310 308 307 307 309 310 309 305 304 306 307 308 309 310 309 309 311 310 309 309 309 309 309 309 310 309 310 312 312 314 315 315 316 315 315 316 314 313 314 312 312 312 313 314 315 314 313 313 312 311 311 312 311 312 313 313 313 312 312 312 312 312 313 313 312 311 312 312 312 315 320 321 322 324 326 328 328 328 328 328 328 328 328 328 327 326
311 310 309 308 307 309 311 310 308 307 305 305 307 307 309 310 309 308 310 309 308 309 309 308 308 308 308 309 309 310 311 312 313 314 315 315 316 316 313 312 313 313 313 313 313 315 316 315 314 314 312 311 311 310 310 311 311 313 313 314 314 314 312 311 311 312 313 312 312 311 311 317 321 321 321 323 323 326 328 327 328 328 328 328 328 327 327 326
310 309 308 308 308 310 311 309 307 307 306 307 307 306 308 309 307 307 308 308 308 308 308 308 308 308 309 309 309 308 310 311 312 312 313 315 314 312 312 312 313 313 314 314 314 315 316 315 314 314 312 311 311 309 309 310 310 312 313 314 315 314 314 314 313 314 313 312 313 311 311 318 322 322 324 323 323 327 328 327 327 327 327 328 327 327 327 327
308 308 308 308 309 311 311 309 308 306 306 308 309 306 307 308 307 308 307 308 309 309 309 309 308 309 309 310 309 309 310 311 312 312 313 314 313 311 312 312 313 315 315 315 315 315 315 315 315 315 314 313 313 311 311 310 311 312 314 314 314 314 316 316 315 315 313 312 312 311 312 320 322 323 325 325 325 327 327 327 326 326 327 326 327 327 327 327
308 309 308 308 310 310 309 308 309 308 308 309 308 308 308 307 307 308 308 308 308 308 309 310 309 308 310 310 311 311 310 311 313 313 313 313 312 311 311 313 314 315 316 317 317 314 313 315 316 316 316 317 316 314 313 312 312 313 314 314 313 313 316 316 313 312 312 313 313 310 314 321 323 322 324 326 325 325 325 325 325 325 326 326 326 327 327 326
308 308 308 308 309 309 308 307 309 309 309 309 309 309 309 309 308 307 308 308 307 306 308 308 307 308 310 311 311 312 311 311 312 314 314 313 312 310 311 313 316 318 320 320 317 314 313 314 314 315 314 314 314 312 312 312 312 312 312 313 313 314 317 317 313 311 312 314 314 313 318 323 322 322 323 324 324 325 325 325 325 325 326 325 326 325 325 325
307 307 307 308 309 309 308 307 307 308 308 308 308 309 309 309 309 307 307 308 307 306 307 307 307 309 311 313 314 313 312 311 313 314 313 312 311 309 310 312 314 317 319 318 315 314 314 314 315 314 312 311 311 310 310 312 313 313 313 313 313 314 317 317 315 316 316 314 314 317 323 324 321 320 321 321 322 323 324 324 325 325 325 325 324 323 323 322
306 306 306 306 307 308 308 307 307 307 308 307 307 308 308 308 308 308 307 307 306 306 308 307 307 307 309 312 314 315 314 313 313 313 313 312 311 311 310 310 311 313 315 315 314 315 316 316 314 313 312 310 311 311 311 312 312 312 313 314 314 315 317 318 317 318 319 317 317 321 324 322 318 317 318 319 319 319 320 320 322 323 323 323 323 322 321 320
305 305 305 305 307 307 307 307 307 307 307 308 307 307 307 306 306 305 305 307 308 306 307 308 306 306 307 309 312 314 314 314 313 313 313 314 314 313 312 311 310 311 312 313 315 316 316 315 314 314 313 311 311 311 312 312 312 313 313 313 313 314 315 316 316 317 318 320 321 323 322 318 314 314 315 315 315 316 317 318 321 322 321 321 321 321 320 318
305 305 305 305 306 306 306 307 308 308 307 307 307 306 306 305 305 303 303 306 307 306 307 307 306 306 306 307 309 311 310 310 312 311 311 313 313 313 313 311 310 311 312 313 315 317 316 314 313 314 314 313 312 311 312 312 313 314 313 313 314 315 315 314 315 316 317 319 320 319 318 314 311 311 313 313 314 315 315 316 318 319 319 319 319 319 318 317
304 303 304 305 304 304 305 307 308 308 307 305 306 306 306 306 305 304 303 303 304 304 305 306 307 307 307 307 307 306 305 306 308 307 307 309 309 309 309 309 309 311 313 313 314 316 315 313 313 314 315 314 312 312 313 313 313 314 315 314 313 314 314 312 311 311 315 317 318 317 317 314 310 310 311 312 313 313 312 313 315 315 315 315 315 315 315 315
304 303 303 304 303 302 304 305 306 307 305 304 305 305 305 306 305 305 304 303 303 303 303 305 307 307 307 307 305 304 303 304 305 304 304 305 305 306 307 307 307 309 311 313 314 315 314 314 313 314 315 314 312 313 314 314 315 315 314 312 312 311 310 309 309 308 309 312 314 315 314 311 310 310 310 310 309 309 308 309 310 311 311 310 311 312 312 312
Wind_Speed
15 14 13 12 11 11 10 11 10 10 10 9 9 9 9 9 9 9 9 9 10 10 11 11 11 11 11 11 11 14 15 14 11 10 13 10 7 10 4 7 17 19 18 15 15 16 14 13 13 12 11 8 7 6 8 7 5 5 6 7 7 7 5 3 5 2 2 5 4 5 6 6 3 4 3 4 7 9 8 8 8 7 7 11 15 20 24 22
15 15 14 13 12 11 11 11 10 10 9 9 9 9 10 9 9 9 9 9 10 10 10 11 11 10 11 10 11 14 14 13 14 15 15 10 6 9 8 10 17 22 19 15 18 18 15 13 14 14 10 7 6 6 9 7 6 7 6 7 8 6 2 1 1 1 1 2 4 3 5 6 4 3 2 4 9 10 9 9 8 9 11 12 15 19 22 21
16 15 15 14 13 11 11 11 10 10 9 9 9 9 9 9 9 9 9 8 9 10 10 10 11 10 11 10 11 12 13 13 12 9 6 4 7 10 10 14 19 22 17 13 16 16 13 13 15 14 10 7 7 8 9 7 7 8 6 7 7 4 2 1 1 1 1 4 4 3 4 4 4 3 2 3 9 10 9 10 9 10 11 12 14 17 20 20
16 16 15 14 13 12 11 10 10 10 9 9 9 9 9 8 9 9 9 8 9 9 9 10 10 10 10 10 11 11 11 11 4 4 3 2 5 12 13 17 21 22 14 8 12 12 11 12 14 13 10 8 7 8 10 8 7 6 7 9 4 2 5 4 3 2 1 4 5 4 4 1 4 3 3 3 8 8 8 8 6 9 13 14 14 16 19 19
16 15 15 15 14 13 12 11 10 10 10 9 9 9 8 8 8 8 9 8 8 9 9 10 10 10 9 9 10 8 8 5 4 6 2 4 4 14 15 17 23 22 12 8 10 10 10 12 13 12 9 8 9 9 10 11 7 5 9 10 3 2 5 3 3 1 1 3 4 4 4 2 2 3 3 4 7 5 5 5 2 7 14 16 16 16 17 16
16 16 15 15 15 14 13 11 10 10 9 9 9 9 8 8 8 8 8 8 8 8 9 10 10 10 9 9 8 6 7 2 4 3 4 4 6 16 15 17 24 20 12 11 11 10 12 12 12 11 9 9 10 11 10 11 9 7 8 9 6 6 6 3 3 2 2 5 5 4 4 4 4 4 1 6 3 6 5 2 1 6 12 15 16 15 15 15
16 16 15 15 15 15 13 12 10 9 9 8 9 8 8 8 8 8 8 8 8 8 8 9 10 9 9 9 6 6 8 2 4 2 5 2 11 17 16 20 22 17 14 13 12 11 11 12 13 10 9 9 11 12 10 10 10 10 7 7 8 8 8 7 5 4 4 6 5 4 5 5 6 3 1 5 2 5 3 2 2 7 12 14 14 14 14 14
16 16 15 15 15 15 14 13 11 10 9 8 8 7 8 8 7 8 7 8 8 8 8 8 9 8 8 7 6 6 6 1 4 4 4 4 15 19 20 20 18 15 15 14 12 11 10 12 12 9 10 9 9 11 9 10 11 13 10 6 7 7 8 9 7 6 7 6 5 5 8 7 5 3 4 5 2 2 1 2 6 10 13 13 13 14 14 14
16 16 16 15 15 14 14 14 12 10 9 8 8 7 8 7 7 8 7 7 7 7 8 8 8 6 7 6 7 6 2 5 7 2 0 9 19 22 20 16 16 15 13 12 10 10 8 10 11 8 8 7 9 10 10 10 8 11 13 7 7 8 8 9 8 8 8 5 4 7 10 6 2 4 6 5 5 4 4 6 9 12 12 12 12 14 15 15
16 16 16 15 15 14 14 14 13 11 9 8 8 7 7 7 8 7 7 7 6 7 7 7 7 4 5 6 8 4 4 7 8 4 4 12 21 23 17 13 16 15 11 10 10 10 8 8 8 6 7 5 8 9 10 10 3 4 11 8 9 9 7 8 8 8 6 5 7 9 9 4 3 5 7 7 8 6 8 9 10 11 12 12 12 13 14 15
17 16 16 16 15 15 14 14 13 12 10 9 8 7 7 7 7 7 7 6 6 7 6 7 5 3 5 6 7 4 4 4 5 5 4 12 19 19 14 14 16 13 10 10 9 11 8 5 5 5 4 5 8 8 10 8 1 2 6 7 9 10 8 9 10 8 6 6 9 9 7 4 6 8 5 9 9 8 9 10 10 11 11 12 13 13 12 12
17 16 16 16 15 15 15 14 14 13 11 9 8 7 7 7 7 7 6 6 6 6 5 5 4 3 5 6 7 5 0 1 2 3 4 10 15 13 10 12 13 10 9 9 9 10 6 2 7 7 2 5 8 7 7 6 4 4 5 7 9 9 10 11 11 8 7 6 6 7 7 7 9 10 5 10 9 8 10 10 11 11 11 11 12 11 10 11
17 17 16 16 15 15 15 14 14 14 12 10 9 8 7 7 6 6 6 5 5 5 4 3 3 3 6 6 3 4 4 4 3 1 5 9 10 9 8 10 9 6 6 6 7 9 6 3 6 6 1 5 6 4 4 6 6 6 6 7 6 8 9 12 10 7 8 4 5 7 7 8 13 13 8 10 9 10 10 10 11 10 10 11 10 9 10 11
17 17 16 16 16 15 15 14 14 14 12 10 8 8 7 7 6 6 5 5 4 4 4 2 3 3 5 6 1 4 7 5 5 5 8 9 8 6 8 10 7 5 4 3 3 6 7 4 5 4 3 5 1 4 5 7 6 7 7 6 6 7 6 11 10 9 10 4 6 10 7 7 11 14 11 9 10 10 9 10 10 10 10 10 9 9 10 11
17 16 17 17 17 16 16 15 14 14 13 11 9 8 8 7 6 5 4 4 3 3 2 2 4 4 6 7 3 4 6 5 7 9 10 10 9 7 9 10 8 5 4 2 2 4 7 6 5 4 4 3 2 6 7 6 7 6 6 6 7 7 4 10 10 10 9 5 8 11 7 7 7 14 12 9 10 10 9 10 10 10 11 10 9 10 9 10
17 16 16 17 17 17 16 16 15 14 14 12 9 8 8 6 5 4 2 1 2 1 2 3 4 5 6 3 2 1 4 5 5 8 11 11 8 6 10 11 8 6 6 3 2 4 7 7 5 3 3 5 6 8 6 6 7 6 7 7 7 8 6 8 9 10 7 5 9 11 8 7 5 12 11 10 11 11 10 11 11 11 11 10 9 9 9 10
17 17 16 17 16 17 16 16 16 14 14 14 10 7 7 4 1 1 2 3 1 2 3 3 2 5 6 2 2 3 4 2 3 6 10 10 6 8 12 10 8 8 7 5 4 5 7 6 3 2 4 6 6 7 6 7 7 6 7 6 5 8 8 5 8 9 7 6 9 10 10 9 4 9 10 10 11 11 10 11 11 10 10 10 10 10 10 10
17 17 17 17 17 17 16 16 16 14 15 14 9 5 4 1 2 1 2 3 2 4 5 3 3 4 4 4 4 3 3 2 4 7 9 9 7 11 12 8 9 10 9 7 6 7 7 5 5 5 6 6 6 7 7 6 6 7 8 6 6 7 8 6 6 8 9 8 9 9 10 12 5 8 9 10 10 10 10 10 10 9 10 10 10 11 11 12
17 17 17 17 17 17 16 16 15 14 15 13 7 4 2 2 2 2 3 4 4 4 4 3 6 4 2 3 4 1 1 2 5 6 10 11 10 11 10 8 11 11 10 8 8 8 5 5 6 6 6 7 8 9 6 2 3 5 7 7 7 6 8 8 4 6 6 7 9 10 10 12 9 9 9 9 9 9 9 9 9 9 10 10 11 11 11 13
18 17 17 17 17 17 16 16 15 14 14 10 5 3 2 2 3 3 4 6 9 10 11 6 9 9 7 5 4 3 3 5 5 6 12 13 13 12 9 10 11 10 9 8 8 6 4 6 7 7 7 8 9 6 3 3 3 2 4 6 7 6 7 7 4 5 3 6 8 10 11 13 10 9 9 9 9 9 10 10 9 9 9 9 11 11 12 13
18 18 17 17 18 17 16 15 15 14 13 8 4 5 4 4 5 2 2 7 12 13 14 12 11 12 9 4 1 1 3 6 6 7 13 14 14 12 9 11 11 9 8 7 6 5 4 7 7 6 3 3 4 2 1 2 3 4 6 6 7 7 5 5 4 4 3 6 6 8 11 10 7 8 9 9 10 10 10 10 10 10 10 9 10 12 12 11
18 18 18 19 18 17 16 15 15 16 11 4 5 7 5 4 3 4 5 8 11 12 15 14 12 12 10 7 4 1 2 5 7 9 12 13 14 11 9 11 11 9 8 6 5 5 7 8 8 6 4 3 2 1 4 5 6 6 6 6 6 7 5 5 4 4 4 5 4 7 10 6 6 7 8 7 8 9 9 9 9 10 10 9 10 11 11 11
18 18 18 19 19 18 16 15 17 15 7 4 7 8 3 2 3 5 5 8 10 8 10 12 11 10 10 10 9 7 6 8 8 11 13 13 12 10 10 11 11 9 9 9 8 7 6 5 6 7 5 4 5 4 7 6 7 8 6 7 6 6 6 4 6 5 3 4 4 6 9 6 6 6 6 5 5 6 7 8 8 7 8 9 10 11 11 12
19 19 19 20 20 18 16 16 16 9 5 7 11 11 5 3 6 7 5 7 9 5 5 6 7 9 9 6 9 13 10 8 7 10 15 15 11 9 10 12 11 8 9 12 12 9 5 3 3 7 7 8 7 7 9 7 7 9 8 9 5 6 6 2 5 6 4 4 5 7 8 6 7 8 7 6 5 6 7 8 8 8 8 8 9 10 11 12
20 19 19 20 20 18 16 14 7 3 4 9 11 8 5 5 7 5 5 6 6 3 4 5 4 5 5 5 10 12 9 9 9 9 16 16 12 9 8 8 8 8 10 12 11 10 5 6 5 8 8 10 8 8 10 9 7 8 10 11 6 4 4 0 5 6 5 6 5 7 7 6 8 9 9 8 7 9 9 9 10 10 9 9 9 10 10 11
20 20 20 19 20 19 14 6 2 2 9 8 5 3 3 7 7 5 4 5 4 2 4 5 3 5 7 7 10 10 8 9 8 10 16 16 12 9 7 6 5 7 8 9 7 7 3 5 5 7 7 10 9 8 10 10 8 6 9 12 9 5 5 3 5 7 5 4 4 4 6 5 7 8 8 9 9 10 9 10 10 10 9 10 10 9 10 10
21 21 21 19 19 17 9 4 4 7 8 2 2 1 6 10 4 6 4 5 4 0 2 3 2 4 5 7 12 9 5 8 8 10 15 15 13 8 7 8 6 5 4 4 5 4 5 6 6 7 8 8 8 7 9 11 9 3 6 9 11 9 7 6 7 7 4 2 5 6 7 4 6 6 7 8 10 10 10 10 9 9 9 10 9 9 10 9
22 21 21 19 16 12 7 8 9 8 6 2 2 6 10 7 4 6 5 5 2 1 1 3 3 3 3 7 13 8 1 9 10 10 14 16 13 8 8 9 9 7 8 7 5 4 7 9 8 10 9 7 7 6 9 13 9 2 5 4 7 7 6 7 7 6 3 2 6 8 6 6 6 7 6 7 9 10 10 10 9 9 9 9 9 9 9 8
23 22 20 19 17 12 7 9 10 8 6 5 6 9 9 3 6 4 5 3 1 1 1 3 4 5 5 8 12 8 2 6 6 7 13 14 9 6 6 6 8 8 10 11 6 4 4 4 5 9 8 4 3 1 5 13 7 3 5 4 4 5 5 6 7 5 4 6 8 7 5 6 6 7 7 7 7 8 8 7 7 6 6 6 6 6 7 7
25 23 20 18 15 8 4 10 14 12 10 9 8 9 5 5 5 5 5 2 1 2 3 3 3 5 8 10 11 9 5 3 4 8 12 11 9 7 3 2 6 6 8 11 9 1 3 1 1 6 5 1 3 4 1 6 3 3 7 7 6 6 5 5 6 4 5 7 7 6 4 6 5 7 7 4 3 4 4 4 4 3 2 2 2 3 5 5
27 25 21 16 10 5 4 6 7 7 5 5 7 6 5 6 4 6 4 1 2 3 4 4 4 6 9 10 9 10 7 4 7 11 11 9 10 9 5 4 5 6 6 8 9 7 6 5 4 4 3 1 2 3 2 2 4 5 8 7 6 6 5 6 5 5 7 7 4 5 3 7 7 5 5 6 6 5 3 2 3 2 2 2 1 0 2 4
29 26 21 15 11 11 10 6 2 2 3 5 8 5 6 5 6 7 4 1 2 3 3 2 4 5 6 8 9 11 10 6 8 12 11 10 10 9 9 8 6 7 7 6 8 7 8 9 7 5 5 5 6 4 5 5 6 7 8 7 7 6 5 7 6 6 8 4 4 3 2 7 6 3 7 8 7 5 4 4 4 4 4 4 3 3 3 5
28 23 17 12 8 13 14 11 9 10 10 10 7 5 6 6 7 7 7 4 1 2 1 1 2 2 3 6 8 11 12 8 9 11 12 12 10 10 12 10 8 9 6 6 8 7 7 9 10 8 6 8 9 6 6 7 7 9 9 7 7 6 6 7 7 7 7 3 5 3 2 6 7 4 7 7 7 6 5 4 4 4 5 5 6 6 6 7
26 19 10 4 2 6 8 10 10 9 8 6 5 7 8 9 6 5 9 7 1 0 2 1 2 3 5 6 5 9 11 9 10 10 10 12 9 9 11 9 10 9 5 5 6 6 9 8 10 10 6 9 12 9 7 8 9 10 8 7 7 6 5 6 6 7 7 4 6 5 3 5 6 3 6 6 6 6 6 6 6 6 6 7 7 8 8 9
21 10 1 2 3 5 8 8 7 5 5 5 6 8 10 9 6 5 7 6 4 5 4 3 4 6 7 5 5 8 7 6 11 10 8 10 9 9 10 9 11 11 6 6 4 5 9 6 7 6 2 7 13 9 7 9 9 7 5 7 6 5 5 3 1 1 3 4 5 6 4 1 1 3 5 5 5 7 7 7 8 8 8 8 8 9 9 10
15 3 3 1 2 6 9 7 7 7 6 6 8 9 9 8 6 5 3 2 3 4 5 6 6 7 7 6 6 9 5 4 10 11 8 10 10 10 10 8 11 13 9 6 4 4 8 5 7 7 4 6 6 5 6 7 5 6 6 7 2 2 4 3 1 2 1 6 4 5 5 3 3 4 5 5 5 8 7 8 9 9 10 9 9 9 9 9
10 2 3 2 7 9 9 6 10 9 6 7 9 8 8 8 5 2 1 0 1 2 5 6 5 5 6 6 7 9 8 6 9 10 8 9 9 8 10 7 8 14 14 10 6 4 7 5 6 8 8 5 1 3 6 3 3 5 7 7 4 1 3 4 4 3 4 8 4 4 8 7 6 5 5 6 5 7 8 8 10 9 10 10 9 9 10 11
6 3 2 7 14 12 5 8 12 10 6 7 10 8 7 7 4 2 1 0 1 3 6 6 2 2 5 6 6 7 8 7 9 9 8 8 5 3 8 7 6 9 11 10 7 3 6 6 5 5 5 6 5 6 6 4 3 3 2 6 5 4 6 6 6 5 6 8 5 6 8 7 7 5 6 8 7 8 8 8 9 9 9 9 9 10 11 11
4 4 1 9 15 8 4 11 11 8 6 8 10 8 7 7 4 3 2 1 2 3 4 4 1 2 4 4 3 4 7 7 7 8 7 7 5 2 3 4 4 5 5 7 7 3 4 6 3 4 3 4 7 8 8 8 7 3 3 5 5 4 4 5 5 5 6 7 6 6 7 7 5 2 5 9 8 8 9 8 8 9 9 8 9 9 9 8
4 3 2 9 11 5 7 8 7 6 7 8 8 6 5 6 6 5 3 3 4 4 3 2 2 3 3 3 3 2 5 7 6 6 6 6 6 3 2 2 4 4 2 6 7 3 3 5 4 4 4 5 7 6 7 7 7 8 8 8 6 4 3 4 5 5 6 6 6 6 7 5 2 4 3 8 9 8 8 9 8 8 8 8 8 7 6 7
4 2 3 9 7 1 1 4 6 5 7 7 7 6 3 2 5 6 6 4 4 4 3 4 4 4 3 3 3 1 3 6 6 6 6 6 7 3 2 1 3 5 4 6 6 3 2 4 6 5 5 7 4 3 3 4 3 5 8 10 9 7 5 6 7 6 5 6 5 6 6 2 4 4 3 6 8 8 9 9 8 8 8 7 6 6 5 6
3 0 5 11 6 4 4 4 4 3 6 5 3 5 3 1 4 5 5 5 6 5 3 5 6 6 6 5 4 3 4 5 6 6 6 6 5 2 3 0 1 4 4 3 4 2 2 3 6 7 4 3 4 6 4 4 4 3 4 5 8 9 9 9 8 6 6 6 4 6 6 2 4 3 3 4 5 7 8 7 8 8 7 6 6 6 6 7
4 3 4 10 5 6 6 3 4 3 5 2 2 3 3 3 5 5 4 5 5 5 4 5 5 5 5 4 5 6 4 5 5 5 5 5 3 4 3 2 4 4 4 4 5 4 2 3 7 7 4 2 4 3 2 1 2 5 3 2 4 6 6 6 5 3 5 6 6 7 7 3 4 4 3 4 5 7 7 7 8 8 8 7 8 8 8 9
4 2 4 11 6 5 5 2 1 3 3 2 3 4 3 2 2 4 4 3 1 2 4 4 3 3 4 2 4 6 3 4 5 3 2 3 3 5 3 2 5 5 3 4 4 4 1 3 6 7 7 6 6 6 5 4 4 5 2 1 1 3 2 3 4 4 6 8 9 9 5 3 4 4 4 6 7 8 8 8 8 8 9 9 9 9 9 10
1 0 2 8 9 2 1 3 3 3 2 3 4 2 2 3 2 4 1 2 3 2 2 2 1 2 3 3 5 5 4 4 3 2 1 3 4 5 5 2 4 5 6 8 7 7 3 1 3 6 8 8 8 6 4 4 4 2 2 3 1 1 3 4 6 8 8 8 10 9 4 5 6 5 6 7 8 10 9 9 9 8 9 9 9 9 9 9
1 2 2 3 6 5 4 3 4 3 1 2 2 2 2 4 4 4 2 3 4 3 2 2 1 3 4 5 6 6 4 4 3 2 2 3 4 4 4 4 3 6 11 11 9 7 3 2 4 4 2 2 3 3 4 1 4 5 5 4 3 1 2 5 8 9 7 7 8 5 5 9 8 7 7 7 8 9 9 9 9 9 9 9 9 9 9 9
1 2 4 3 3 4 4 5 6 4 3 2 1 2 2 3 4 3 2 3 3 3 2 3 2 2 4 5 6 5 3 4 3 2 2 2 4 5 5 6 8 9 10 10 8 6 4 3 2 6 6 6 7 6 6 3 5 6 6 6 5 4 3 3 4 4 5 6 6 5 11 12 8 8 7 7 7 7 7 8 9 9 9 9 9 9 10 10
2 2 3 3 3 4 5 6 7 6 7 5 2 3 4 3 3 4 3 3 3 3 2 2 5 3 1 3 4 4 3 4 4 3 2 2 4 7 6 6 7 6 7 8 7 5 5 4 2 2 3 6 8 7 6 6 8 8 8 8 7 7 6 4 4 8 7 2 1 6 12 11 8 7 7 6 6 5 5 5 7 8 9 9 10 10 11 11
2 2 2 2 2 5 5 5 6 7 10 8 5 6 8 8 8 7 5 2 3 6 5 4 7 7 3 0 2 2 2 1 3 4 2 2 2 3 5 6 6 4 7 8 6 5 3 4 6 6 3 3 6 8 8 6 6 6 8 8 8 8 8 8 7 8 7 6 6 9 13 11 7 6 6 6 4 4 5 5 6 8 8 9 9 9 10 10
2 2 2 1 3 5 4 4 5 6 8 7 6 7 9 10 10 8 8 7 5 6 7 6 7 8 8 7 5 6 6 5 4 5 4 2 1 1 2 3 2 3 6 7 6 4 2 3 8 9 6 2 2 5 7 6 6 6 6 8 8 7 6 7 7 6 5 6 7 9 11 9 5 5 7 6 5 6 8 8 7 7 7 7 8 8 9 10
3 2 3 1 3 4 3 4 3 3 6 7 6 7 8 10 10 6 7 10 9 7 8 8 6 5 8 11 11 9 7 7 5 5 5 3 3 3 3 3 3 0 3 5 5 4 3 5 8 8 6 5 3 2 3 5 5 4 3 4 6 6 5 5 6 5 4 4 5 6 6 6 5 5 7 7 8 9 10 10 9 8 8 7 8 9 10 11
2 0 3 2 3 4 3 4 5 4 4 5 4 5 5 8 11 7 5 7 10 10 8 8 6 3 6 10 11 9 8 7 5 4 4 3 3 3 3 3 4 3 1 2 3 5 5 7 8 7 6 6 6 5 4 3 1 3 2 1 3 3 3 4 5 5 5 3 1 2 4 6 6 6 8 10 10 11 11 10 8 9 10 10 10 10 10 11
Wind_Direction
350 346 342 336 329 322 314 312 312 310 306 307 307 307 309 311 311 313 317 319 320 317 316 316 315 318 315 315 318 310 308 306 297 269 247 255 246 221 210 175 177 163 157 159 163 168 170 183 180 180 189 184 204 196 178 199 207 205 224 227 231 228 214 202 198 203 92 100 69 42 10 357 63 97 117 151 135 124 127 112 108 100 81 89 104 121 129 137
352 349 346 341 335 327 317 313 311 307 304 305 303 304 308 307 310 311 313 317 317 317 316 315 315 317 313 315 317 309 309 301 283 267 253 253 240 210 194 178 174 164 159 164 174 177 178 183 176 181 191 183 187 176 173 185 199 215 226 227 233 233 198 116 294 351 28 35 22 34 13 360 28 84 176 179 138 143 143 125 131 118 105 111 120 131 134 139
353 351 349 344 340 332 322 315 310 306 302 301 300 302 304 304 308 307 311 314 316 318 315 316 315 312 312 312 312 312 312 297 277 251 241 252 211 194 175 174 173 165 164 175 182 185 190 184 176 184 194 194 187 181 187 179 192 220 231 232 232 231 226 207 227 253 2 351 334 8 356 353 37 36 263 192 153 165 159 141 156 143 133 138 138 141 141 145
354 352 351 347 343 336 327 319 311 307 300 298 297 296 299 303 304 304 308 308 313 316 315 319 315 312 313 309 312 320 306 280 259 130 124 16 188 179 166 171 173 168 167 178 185 193 200 186 181 192 200 199 188 192 196 176 188 211 218 240 247 211 231 199 177 224 317 332 312 332 314 307 36 347 303 196 171 175 162 145 162 158 148 149 153 154 150 151
353 352 352 349 346 340 334 325 315 310 302 297 293 291 297 300 299 301 304 306 310 311 314 316 314 316 311 315 322 317 292 258 109 89 63 6 169 168 167 173 171 169 173 179 179 188 194 186 185 196 206 202 183 193 201 187 200 216 217 242 274 208 228 190 167 242 300 292 288 294 293 343 344 287 306 249 197 135 115 114 99 154 150 153 159 160 156 156
352 352 351 350 349 344 340 331 321 314 304 298 292 292 294 294 294 296 300 306 306 306 312 313 314 317 316 328 324 284 273 284 83 55 6 15 153 161 165 168 167 172 181 182 175 179 185 183 187 195 206 207 191 197 200 185 200 228 217 225 236 230 237 232 218 248 279 268 268 280 310 335 282 257 307 271 256 64 52 38 35 152 147 152 158 162 160 158
351 352 350 351 350 346 344 336 327 318 308 301 295 293 292 292 291 292 298 302 304 306 307 311 313 315 331 332 299 248 253 281 63 352 340 45 153 156 157 156 162 173 182 182 178 182 182 185 195 198 204 207 198 199 194 180 198 232 227 201 217 231 238 249 249 241 257 264 269 291 296 279 258 254 232 258 306 43 20 342 200 151 142 148 155 162 159 158
352 352 351 351 349 348 346 339 332 322 314 305 297 292 289 290 290 292 295 296 300 308 307 313 313 318 347 335 282 249 238 311 35 315 317 148 157 155 151 151 163 175 183 187 184 190 189 192 200 198 206 205 199 196 184 186 203 227 234 203 208 224 233 244 249 246 252 255 258 265 264 259 254 277 259 230 134 63 34 138 163 144 140 150 157 161 160 161
351 351 351 350 349 348 346 343 337 327 321 312 303 294 289 289 291 290 290 294 298 304 311 311 308 322 348 322 281 270 205 49 29 333 85 155 162 159 155 158 171 177 186 191 192 200 196 200 199 201 224 205 193 194 183 201 210 217 228 223 219 228 232 238 241 242 246 241 236 245 245 238 223 256 242 197 126 114 131 139 145 142 146 153 159 162 164 168
351 350 349 349 348 346 346 345 340 333 326 316 308 298 293 290 289 288 285 291 296 301 311 305 309 335 324 293 275 276 97 57 34 57 128 163 164 164 168 172 174 182 189 187 197 204 203 214 196 203 248 210 192 194 188 209 215 199 223 230 235 240 235 237 242 238 244 235 220 237 244 208 156 223 220 149 129 142 139 139 144 147 151 155 162 166 169 175
352 350 347 348 347 345 345 344 342 338 329 319 312 301 293 288 284 287 286 287 291 296 305 298 311 333 295 280 274 288 88 67 26 49 135 167 168 171 181 180 178 189 191 188 202 201 207 223 187 201 236 181 185 190 191 212 242 181 218 226 230 238 234 233 239 231 231 224 211 229 246 191 167 220 208 123 135 153 141 143 148 152 152 158 167 166 173 178
351 349 347 347 345 345 343 342 342 339 333 323 314 305 295 291 285 283 282 283 285 288 302 305 329 337 286 267 259 265 124 276 347 55 141 163 172 181 188 183 186 199 196 200 205 196 206 219 202 216 193 161 177 179 185 199 221 212 218 232 217 221 230 224 225 217 215 207 180 208 231 202 194 214 178 123 141 149 143 149 148 154 156 158 164 165 176 176
350 348 346 345 345 345 343 341 341 339 336 325 315 310 297 290 285 280 277 277 277 279 293 312 327 310 278 273 250 232 243 259 279 198 160 168 179 192 193 186 193 211 216 222 204 191 203 218 228 237 209 202 180 131 150 172 207 214 213 244 222 217 225 209 205 201 208 189 151 202 231 215 205 200 161 133 153 152 149 154 152 158 158 158 160 167 179 179
348 347 345 345 345 343 342 340 339 339 337 328 316 309 300 293 285 277 274 272 268 272 272 283 292 269 263 276 244 238 255 260 257 213 175 174 175 179 186 188 195 203 219 236 192 189 199 211 253 250 216 245 176 130 177 173 199 212 202 230 233 238 209 177 182 192 201 169 165 211 241 236 198 171 155 147 161 163 158 156 156 162 161 163 165 171 180 185
346 346 344 343 344 342 342 340 338 337 336 331 315 307 303 295 290 276 267 268 264 272 254 248 260 251 267 264 223 261 259 233 227 204 185 182 175 170 173 181 187 188 195 190 155 185 196 207 242 233 178 211 207 185 193 180 196 209 207 215 216 235 187 158 171 196 206 158 176 212 237 245 183 146 150 155 166 172 166 158 159 165 162 167 172 176 181 189
344 344 342 342 343 342 342 340 338 335 334 330 318 314 305 290 290 276 258 220 221 171 196 234 229 245 282 277 145 247 220 195 202 188 185 189 188 170 158 163 168 177 187 169 149 168 188 210 236 268 191 182 200 202 192 185 197 201 219 224 200 213 208 166 167 194 214 161 182 214 238 246 149 137 153 160 175 178 170 163 162 167 164 172 178 178 182 187
343 342 342 342 341 341 341 338 336 334 330 330 326 322 308 293 288 252 117 122 198 181 220 262 246 244 268 264 206 189 160 152 153 164 179 188 195 163 150 156 161 166 170 155 161 170 181 207 209 223 218 203 200 205 203 198 197 188 212 229 202 213 225 184 160 173 194 199 203 210 233 249 138 137 163 166 181 185 177 168 163 170 172 177 182 181 186 189
342 340 341 341 340 339 339 336 334 331 328 330 332 331 327 14 95 106 122 143 179 188 218 249 244 242 229 230 241 154 113 84 129 150 166 169 172 164 157 160 158 158 164 162 178 189 185 200 213 202 196 201 201 206 213 207 205 194 198 217 206 211 229 216 159 151 179 207 220 209 223 239 186 143 170 171 182 191 182 171 163 170 176 183 189 190 194 197
340 338 339 340 339 337 337 335 331 329 328 331 339 344 12 103 147 176 178 184 191 225 260 192 201 265 318 244 244 173 108 120 147 157 161 158 159 164 162 157 160 164 170 171 178 190 193 188 207 214 192 192 199 211 226 236 239 211 196 217 214 198 212 216 144 125 189 215 223 220 223 231 202 160 171 171 177 192 184 173 169 171 178 186 194 197 199 202
339 337 336 337 338 336 334 332 329 326 326 329 329 299 244 233 249 188 180 211 223 255 283 257 225 264 294 270 242 225 200 179 194 181 164 161 156 159 161 159 168 179 186 184 168 173 212 203 200 211 201 194 199 217 281 354 330 248 210 223 223 210 199 193 148 123 193 239 226 221 226 229 206 165 167 168 173 191 188 180 180 178 180 187 196 201 201 204
338 336 335 335 336 334 332 331 325 321 320 315 278 260 274 316 316 339 302 248 237 242 259 262 253 256 264 265 205 181 196 189 195 171 164 168 165 164 162 166 179 187 192 185 150 147 217 221 210 204 178 158 183 213 303 274 256 238 228 218 211 219 198 144 145 146 171 239 222 208 223 220 188 162 164 169 180 190 190 188 188 185 182 182 195 203 202 202
337 336 333 334 335 333 333 328 319 317 315 291 247 255 291 337 346 342 314 282 271 249 244 251 254 251 245 237 212 181 270 219 180 160 166 176 182 182 168 177 193 182 173 178 162 173 210 227 216 183 97 87 135 179 216 230 236 228 225 223 211 210 195 127 144 165 175 232 215 189 209 187 150 161 158 171 194 189 189 193 193 191 186 181 193 202 202 202
337 336 334 334 333 331 332 326 317 314 292 225 243 256 282 1 339 309 274 281 293 262 236 238 238 235 228 227 212 199 233 232 194 167 169 184 194 195 179 185 201 183 171 193 199 198 204 221 210 167 130 177 187 189 214 224 226 225 218 221 209 184 205 188 160 159 165 240 257 191 190 159 141 157 151 170 203 189 189 199 199 198 195 191 192 195 202 205
338 339 335 332 330 328 332 325 314 300 242 236 262 263 260 297 312 299 258 270 287 265 227 225 229 232 224 207 185 192 211 223 209 171 170 187 188 187 196 194 200 194 188 201 211 225 211 90 129 169 175 208 206 192 211 219 211 215 219 228 214 168 215 239 137 148 157 198 235 194 181 165 162 177 175 170 186 196 197 202 204 201 201 201 194 193 202 207
338 338 334 331 328 327 332 324 298 242 266 269 267 255 230 284 308 280 254 276 271 228 175 185 210 217 192 155 168 186 200 210 216 174 169 192 185 173 198 198 204 208 200 200 213 237 223 97 129 181 187 209 214 201 208 218 211 201 211 232 245 188 213 240 143 179 193 179 193 207 199 169 165 186 185 167 181 202 200 202 204 200 198 199 198 199 203 206
336 335 332 328 326 327 331 321 203 279 296 270 245 191 222 303 304 234 248 285 260 191 147 181 197 166 159 168 170 173 194 202 206 172 171 194 192 181 195 184 209 227 199 193 215 244 213 129 168 192 193 207 219 218 202 211 225 194 187 211 227 227 223 225 199 211 225 168 149 227 236 174 163 181 178 171 186 197 198 204 204 199 197 200 201 200 202 205
334 333 330 325 326 331 331 306 292 297 287 246 134 248 300 312 278 204 251 269 243 127 128 168 140 141 158 174 169 170 177 155 157 168 176 189 184 192 214 179 191 226 173 180 219 222 188 173 188 203 212 215 220 218 193 205 230 178 141 192 210 216 215 220 223 223 235 121 143 218 250 211 173 164 162 174 189 192 196 203 202 196 196 201 203 197 201 202
332 331 326 321 319 317 292 285 294 278 268 309 322 304 318 314 203 198 271 270 227 106 145 114 100 147 157 168 181 198 119 136 160 172 176 188 184 197 223 198 198 196 169 195 207 146 179 196 195 202 214 216 211 203 179 201 225 110 103 185 203 207 212 216 229 228 217 212 199 202 229 231 183 142 146 176 189 189 190 195 193 190 193 198 201 200 199 197
331 328 323 319 317 308 271 259 261 254 268 290 292 313 322 256 193 222 268 265 212 145 131 110 134 169 152 162 193 219 226 174 183 151 162 185 196 217 239 217 216 194 175 214 232 103 149 209 216 213 218 211 191 85 179 204 217 100 128 160 164 189 210 219 232 225 197 228 224 186 198 240 194 150 161 184 188 175 171 178 174 176 188 193 199 199 194 190
329 325 322 320 317 310 254 241 252 267 278 271 290 319 300 200 207 236 228 245 267 118 124 158 159 159 158 168 192 208 209 175 130 140 162 179 191 211 254 244 228 209 186 221 245 229 127 115 266 232 242 330 69 57 182 213 208 145 172 175 170 184 195 215 231 224 210 228 215 164 183 249 212 173 172 161 131 111 126 143 128 122 147 164 195 207 197 185
327 325 323 312 293 260 232 240 263 284 263 265 315 315 236 203 227 234 201 246 287 150 148 168 145 154 176 184 189 194 198 159 139 161 168 172 185 197 205 197 210 216 204 216 234 229 205 198 207 209 222 287 160 142 130 185 190 194 198 193 189 188 189 206 208 210 227 227 177 135 182 238 227 187 145 107 85 66 55 86 84 59 52 65 60 175 186 152
327 327 321 300 264 234 234 238 260 260 235 306 325 274 215 201 223 231 199 185 237 175 147 142 141 158 189 200 199 193 195 179 161 174 177 178 186 192 200 198 184 196 209 205 204 210 216 219 212 189 182 211 220 180 149 172 194 206 210 204 202 197 197 209 202 207 228 214 128 122 203 230 228 134 103 94 84 65 39 35 28 18 28 46 78 99 106 130
328 329 318 301 258 231 245 262 264 262 272 296 295 226 211 218 218 218 215 216 135 94 52 66 171 189 200 210 204 192 198 192 174 184 189 188 190 193 204 209 199 205 217 203 196 193 202 213 213 206 189 205 225 213 173 177 191 204 206 206 214 208 202 214 207 208 219 170 119 134 212 228 216 121 84 79 76 71 66 63 50 49 56 64 89 101 106 122
329 328 314 323 287 243 275 288 268 262 270 269 232 202 213 223 216 208 223 228 214 320 291 292 277 256 217 219 197 183 202 203 185 189 188 190 200 198 200 207 209 219 227 199 203 205 208 207 201 206 187 182 211 230 213 189 191 206 215 218 229 229 220 225 226 225 223 184 135 149 197 231 213 127 68 71 83 85 86 92 89 87 89 87 94 100 102 106
334 334 282 60 358 318 326 301 258 239 234 223 211 207 209 213 216 218 226 235 234 244 256 255 270 254 218 212 193 186 214 214 192 200 199 195 205 202 200 202 203 217 229 207 198 210 228 223 169 175 151 179 205 224 227 215 198 196 226 229 234 246 234 227 285 292 253 223 169 170 206 247 153 118 95 93 94 92 91 99 103 100 99 99 100 101 101 106
341 340 179 116 340 320 320 286 217 196 212 214 207 211 212 212 221 220 213 253 245 246 255 237 236 244 222 198 186 184 207 218 191 198 209 204 208 207 205 201 195 207 217 214 195 195 229 225 137 149 186 197 220 221 210 236 213 175 212 222 205 303 253 225 174 93 291 250 201 177 214 190 151 164 139 128 111 99 98 100 100 98 101 101 97 98 101 107
338 284 193 15 346 324 307 237 184 182 205 217 214 219 219 216 221 222 130 79 241 248 259 239 212 236 235 213 196 180 183 197 189 196 207 201 206 212 209 205 198 208 216 223 230 219 235 228 152 181 201 169 241 232 191 236 252 201 212 196 127 58 241 239 236 193 219 238 201 176 218 210 195 188 151 157 143 109 103 103 104 104 103 100 95 98 100 102
317 261 192 8 347 327 283 182 172 179 200 218 222 227 228 219 211 207 173 136 238 236 248 244 214 245 245 228 212 181 180 191 184 194 205 190 188 209 207 205 197 211 224 231 230 210 232 236 164 178 200 142 153 212 192 186 238 265 235 175 171 223 212 209 231 219 215 230 216 195 212 219 217 189 157 176 165 125 120 116 114 112 107 105 105 106 107 108
274 238 169 11 353 339 172 167 174 187 203 214 220 222 226 224 207 198 213 231 248 250 249 248 241 251 248 243 241 192 197 208 189 195 211 194 183 175 197 202 180 194 231 236 229 203 214 241 198 154 169 150 171 209 209 191 190 226 239 194 202 245 232 212 220 224 227 231 222 205 207 218 219 157 151 172 158 137 139 131 124 119 115 117 117 119 118 118
262 242 95 16 1 41 123 165 189 198 203 213 225 221 210 222 220 209 223 248 249 252 266 269 238 239 250 252 261 226 214 227 215 213 215 185 174 156 136 167 157 149 172 210 223 229 201 233 229 149 153 195 198 210 227 214 194 201 213 209 204 213 233 240 227 227 245 241 224 218 219 204 115 37 76 136 138 149 152 138 133 129 124 125 125 130 129 122
269 241 54 9 347 45 104 213 201 197 208 216 236 232 206 227 233 212 204 229 251 253 278 281 263 266 284 259 242 228 229 234 225 225 219 194 196 183 111 130 145 129 156 190 197 220 207 229 233 194 191 215 198 63 349 308 268 222 221 217 214 211 214 227 223 214 233 249 243 237 230 167 72 15 28 95 127 158 153 137 134 134 131 130 128 133 137 133
296 71 33 0 328 264 278 233 181 209 224 217 245 240 226 255 248 224 194 203 235 239 244 262 261 262 267 264 261 264 263 248 228 224 221 204 203 144 92 314 181 129 131 132 105 52 3 272 244 225 213 192 95 69 32 343 331 274 255 236 225 223 221 231 233 207 206 228 242 250 240 141 64 22 28 67 114 140 137 131 129 128 130 131 127 131 137 133
25 60 41 4 328 248 268 234 179 214 219 219 296 243 228 235 236 230 204 201 224 223 222 239 246 248 251 261 271 261 255 254 245 240 228 196 124 68 86 198 200 161 143 125 91 54 16 266 246 230 207 145 115 119 117 28 261 232 229 238 242 238 231 247 259 218 202 211 214 237 233 159 73 42 62 90 110 119 121 121 120 122 126 128 126 126 128 127
43 64 55 19 3 237 258 294 216 215 206 228 238 205 197 224 264 254 221 202 227 231 240 243 233 249 254 251 265 261 252 250 242 241 249 199 115 62 68 170 215 208 157 138 133 110 110 258 253 230 209 198 196 196 187 180 209 223 200 120 304 282 233 237 255 240 235 225 218 234 232 127 85 67 90 108 116 115 113 115 119 123 125 126 124 122 124 127
358 79 77 31 29 45 8 3 323 277 231 221 214 193 198 178 62 360 334 80 41 354 279 277 281 279 260 237 246 247 238 255 251 215 218 172 121 75 61 78 239 207 131 112 122 129 123 344 294 249 225 218 215 211 211 190 170 151 115 104 58 271 226 228 232 233 234 217 216 236 230 114 105 97 96 106 116 113 111 116 120 123 125 128 128 126 124 122
346 14 23 36 42 51 63 40 345 313 273 232 200 20 293 189 118 46 30 67 52 36 10 355 318 259 239 227 229 224 211 228 242 209 188 154 121 84 61 67 83 120 124 119 113 110 97 55 7 343 325 301 305 352 1 28 145 130 118 104 71 25 286 263 239 237 235 208 212 220 149 134 130 111 103 109 114 112 116 125 128 127 127 126 124 124 121 116
23 23 6 351 19 36 49 40 20 9 359 309 294 10 326 199 144 91 44 49 53 43 35 36 13 247 231 226 219 209 188 187 183 146 131 126 116 105 93 90 89 100 123 130 119 103 109 128 25 10 20 17 12 18 18 54 103 97 92 82 53 33 348 268 245 291 291 232 213 148 130 135 124 107 113 121 121 118 118 124 129 130 129 128 126 126 122 120
26 56 20 327 337 20 24 21 23 36 38 26 23 24 30 81 91 62 44 53 59 25 355 53 35 6 246 246 231 195 166 158 129 100 108 116 130 137 127 108 98 114 142 141 134 134 142 153 148 44 28 19 22 27 27 57 78 70 65 62 49 43 41 49 40 10 356 295 181 117 121 118 98 95 105 106 110 113 103 106 124 132 133 133 133 131 126 122
51 86 52 312 354 39 41 26 27 45 37 23 35 36 35 54 58 45 23 16 67 36 19 64 46 32 55 314 255 150 109 125 108 90 68 62 111 156 141 115 108 140 153 139 141 159 152 142 154 154 133 43 26 27 29 44 62 57 49 41 34 44 56 64 56 36 40 60 68 92 101 90 72 71 76 76 77 83 80 86 119 133 132 133 133 130 123 114
26 43 11 50 65 46 55 48 37 56 39 14 27 34 32 45 47 40 31 26 48 36 20 49 52 39 61 69 71 77 45 16 63 70 33 23 49 45 74 90 90 150 158 141 143 173 183 149 157 157 146 121 29 27 34 37 36 32 29 18 7 11 39 61 54 34 46 73 85 97 95 82 65 64 74 80 83 87 79 74 89 104 109 119 122 115 109 102
15 9 313 328 60 17 27 62 47 62 46 20 16 12 19 30 19 20 52 42 39 35 12 14 22 31 66 67 58 54 28 0 22 32 10 13 30 28 34 31 18 25 171 150 152 176 168 145 160 174 175 167 160 107 74 48 17 343 335 16 12 1 18 51 46 12 6 62 111 127 105 89 94 94 89 85 79 79 73 64 70 76 72 77 86 87 86 86
349 136 280 285 56 16 9 59 57 58 49 20 8 355 356 5 358 5 70 45 28 32 17 1 356 10 61 52 32 13 348 330 336 345 338 354 10 27 56 51 29 14 46 142 171 175 156 149 164 190 196 169 154 139 102 72 315 272 250 89 52 48 95 101 71 40 14 351 327 122 100 98 107 107 97 87 74 67 62 57 61 71 65 57 62 72 75 77